カタログに戻る

COSMOS 1015

運用中ナビゲーションLEO
NORAD 10932·PAYLOAD·🇷🇺 Russia

打ち上げ Jun 7, 1978 から Plesetsk Cosmodrome

Loading…

次のパス (今後24時間)

TLE

最新Source: Space-Track

元期: Sep 14, 2026, 11:30 UTC

1 10932U 78056C   26257.47945758  .00000009  00000-0  17902-3 0  9993
2 10932  74.0276 158.7002 0027308   1.7257 109.1562 12.42817203189886

AllMySatでCOSMOS 1015をリアルタイム追跡

Download on the App Store